Location: R�serve Fauniques des Laurentides
(47.3100°N, 71.1900°W)
Time: 06:34:49
(UTC-04:00)

Amateur Radio Satellites - All Passes

Search period start: 18 April 2014 06:04
Search period end: 19 April 2014 06:04
Location: R�serve Fauniques des Laurentides, 47.3100°N, 71.1900°W

Satellite Date Start Highest point End Downlink Frequencies (MHz)
Time Altitude Azimuth
Gurwin Techsat 1B 18 Apr 06:10:19 06:11:37 11° 309° (NW) 06:12:55 435.225 FM
Hamsat 18 Apr 06:11:44 06:15:07 22° 92° (E) 06:18:31 145.90 MHz
STRAND 1 18 Apr 06:26:46 06:31:54 86° 74° (ENE) 06:37:02 ?
MaSat-1 18 Apr 06:27:26 06:29:51 26° 55° (NE) 06:32:34 437.345 MHz
Sapphire 18 Apr 06:45:33 06:46:19 10° 14° (NNE) 06:47:05 437.095 MHz 1200 baud AX-25 AFSK
RS-15 18 Apr 06:47:04 06:57:38 48° 112° (ESE) 07:07:53 29.354 - 29.394 USB, Beacon 29.352 USB
AO-7 18 Apr 06:49:14 06:57:03 47° 301° (WNW) 07:04:51 29.400 - 29.500 MHz
SO-67 18 Apr 07:05:28 07:07:18 14° 90° (E) 07:09:07 435.3500 MHz FM
PCSat 18 Apr 07:29:32 07:32:34 15° 26° (NNE) 07:35:35 145.825 MHz
Oscar 10/S400 18 Apr 07:32:50 09:50:43 12° 113° (ESE) 11:14:54 145.825 - 145.975 CW/USB, Beacon 145.810 USB
JAS-2 18 Apr 07:36:05 07:41:12 46° 99° (E) 07:46:43 435.800 - 435.900 CW/SSB, 435.910 FM
KITSAT 1 18 Apr 07:45:32 07:51:18 20° 356° (N) 07:57:04 435.175 FM
Hamsat 18 Apr 07:47:11 07:51:17 41° 290° (WNW) 07:55:23 145.90 MHz
MaSat-1 18 Apr 08:06:08 08:08:12 18° 248° (WSW) 08:10:29 437.345 MHz
STRAND 1 18 Apr 08:09:16 08:11:46 14° 272° (W) 08:14:17 ?
Sapphire 18 Apr 08:27:16 08:31:47 26° 39° (NE) 08:36:16 437.095 MHz 1200 baud AX-25 AFSK
SO-67 18 Apr 08:37:21 08:40:43 44° 288° (WNW) 08:44:03 435.3500 MHz FM
AO-7 18 Apr 08:43:56 08:47:51 14° 324° (NW) 08:51:46 29.400 - 29.500 MHz
RS-15 18 Apr 08:58:41 09:09:46 62° 317° (NW) 09:20:37 29.354 - 29.394 USB, Beacon 29.352 USB
HO-68 18 Apr 09:04:59 09:11:05 29° 93° (E) 09:17:08 435.675 MHz FM
PCSat 18 Apr 09:12:04 09:17:21 48° 49° (NE) 09:22:35 145.825 MHz
Oscar 11 18 Apr 09:19:44 09:21:18 12° 88° (E) 09:22:52 145.825 FM, Beacon 2401.500 USB
JAS-2 18 Apr 09:21:46 09:26:11 28° 297° (WNW) 09:30:51 435.800 - 435.900 CW/SSB, 435.910 FM
KITSAT 1 18 Apr 09:43:05 09:49:51 28° 26° (NNE) 09:56:34 435.175 FM
Sapphire 18 Apr 10:10:20 10:15:45 73° 240° (WSW) 10:21:08 437.095 MHz 1200 baud AX-25 AFSK
FUNcube-1 18 Apr 10:40:02 10:43:36 26° 95° (E) 10:47:12 145.950 - 145.970 MHz USB
Saudisat 1A 18 Apr 10:45:18 10:48:25 19° 112° (ESE) 10:51:33 436.775 MHz
HO-68 18 Apr 10:52:11 10:59:16 64° 293° (WNW) 11:06:20 435.675 MHz FM
Oscar 11 18 Apr 10:53:42 10:58:04 79° 285° (WNW) 11:02:25 145.825 FM, Beacon 2401.500 USB
PCSat 18 Apr 10:55:51 11:00:35 31° 249° (WSW) 11:05:18 145.825 MHz
RS-15 18 Apr 11:15:08 11:24:47 33° 348° (NNW) 11:34:22 29.354 - 29.394 USB, Beacon 29.352 USB
Oscar 19 18 Apr 11:31:48 11:32:42 10° 51° (NE) 11:33:36 437.125 CW, 437.150 USB
Oscar 16 18 Apr 11:38:20 11:40:34 13° 54° (NE) 11:42:49 437.025 USB, Beacon 2401.1428
KITSAT 1 18 Apr 11:38:37 11:46:46 71° 51° (NE) 11:54:49 435.175 FM
Sapphire 18 Apr 11:56:36 11:58:12 11° 259° (WSW) 11:59:48 437.095 MHz 1200 baud AX-25 AFSK
Uribyol 2 18 Apr 12:10:52 12:13:23 14° 54° (NE) 12:15:54 436.500 FM
FUNcube-1 18 Apr 12:16:16 12:20:05 33° 292° (WNW) 12:23:57 145.950 - 145.970 MHz USB
Saudisat 1A 18 Apr 12:23:10 12:27:37 63° 311° (NW) 12:32:04 436.775 MHz
Oscar 11 18 Apr 12:32:35 12:33:31 11° 304° (WNW) 12:34:26 145.825 FM, Beacon 2401.500 USB
HO-68 18 Apr 12:41:33 12:45:40 17° 314° (NW) 12:49:47 435.675 MHz FM
AO-27 18 Apr 12:48:16 12:52:30 26° 62° (ENE) 12:56:45 436.795 MHz FM
ITAMSAT 1 18 Apr 12:58:59 13:03:29 31° 64° (ENE) 13:07:59 435.822 SSB
Oscar 19 18 Apr 13:05:58 13:11:00 60° 71° (ENE) 13:16:06 437.125 CW, 437.150 USB
Oscar 16 18 Apr 13:13:56 13:19:03 75° 73° (ENE) 13:24:14 437.025 USB, Beacon 2401.1428
JAS-1B 18 Apr 13:16:46 13:19:02 12° 48° (NE) 13:21:12 435.800 - 435.900 CW/SSB
AO-Echo 18 Apr 13:18:20 13:23:04 36° 66° (ENE) 13:27:42 ?
TMSAT-1 18 Apr 13:24:22 13:27:05 14° 55° (NE) 13:29:48 436.925 FM
RS-15 18 Apr 13:30:56 13:40:57 38° 23° (NNE) 13:50:59 29.354 - 29.394 USB, Beacon 29.352 USB
KITSAT 1 18 Apr 13:34:43 13:41:34 32° 252° (WSW) 13:48:23 435.175 FM
Uribyol 2 18 Apr 13:46:54 13:52:03 80° 73° (ENE) 13:57:15 436.500 FM
Saudisat 1A 18 Apr 14:05:18 14:08:05 16° 332° (NNW) 14:10:52 436.775 MHz
AO-7 18 Apr 14:09:00 14:15:05 24° 46° (NE) 14:21:11 29.400 - 29.500 MHz
Gurwin Techsat 1B 18 Apr 14:12:16 14:17:16 44° 68° (ENE) 14:22:18 435.225 FM
OPAL 18 Apr 14:20:47 14:23:43 15° 91° (E) 14:26:39 ?
AO-27 18 Apr 14:26:44 14:31:46 50° 260° (W) 14:36:49 436.795 MHz FM
ITAMSAT 1 18 Apr 14:37:59 14:42:52 41° 262° (W) 14:47:45 435.822 SSB
Oscar 19 18 Apr 14:47:01 14:50:46 20° 269° (W) 14:54:33 437.125 CW, 437.150 USB
SO-50 18 Apr 14:49:01 14:50:34 12° 108° (ESE) 14:52:07 436.795 FM
Oscar 16 18 Apr 14:55:53 14:59:00 16° 271° (W) 15:02:09 437.025 USB, Beacon 2401.1428
AO-Echo 18 Apr 14:57:04 15:01:50 35° 264° (W) 15:06:31 ?
JAS-1B 18 Apr 15:00:50 15:08:28 53° 68° (ENE) 15:14:54 435.800 - 435.900 CW/SSB
TMSAT-1 18 Apr 15:00:54 15:06:12 81° 74° (ENE) 15:11:31 436.925 FM
ISS 18 Apr 15:04:29 15:05:37 11° 133° (SE) 15:06:45 145.800 FM
Uosat F 18 Apr 15:14:12 15:18:57 44° 68° (ENE) 15:23:43 435.120 FM
Uribyol 2 18 Apr 15:29:16 15:32:10 15° 272° (W) 15:35:05 436.500 FM
RS-15 18 Apr 15:44:00 15:55:01 84° 52° (NE) 16:06:14 29.354 - 29.394 USB, Beacon 29.352 USB
Gurwin Techsat 1B 18 Apr 15:52:50 15:57:24 29° 266° (W) 16:02:00 435.225 FM
OPAL 18 Apr 15:58:00 16:03:14 83° 289° (WNW) 16:08:28 ?
AO-7 18 Apr 15:58:29 16:06:45 81° 68° (ENE) 16:15:04 29.400 - 29.500 MHz
SO-50 18 Apr 16:25:54 16:30:23 85° 126° (SE) 16:34:56 436.795 FM
ISS 18 Apr 16:38:29 16:41:48 63° 150° (SSE) 16:45:08 145.800 FM
TMSAT-1 18 Apr 16:43:44 16:46:46 15° 272° (W) 16:49:50 436.925 FM
JAS-1B 18 Apr 16:52:00 16:59:15 36° 263° (W) 17:05:28 435.800 - 435.900 CW/SSB
Uosat F 18 Apr 16:53:43 16:57:56 26° 266° (W) 17:02:09 435.120 FM
Hamsat 18 Apr 17:08:36 17:11:57 23° 65° (ENE) 17:15:20 145.90 MHz
UOSAT-12 18 Apr 17:16:18 17:19:36 20° 112° (ESE) 17:22:56 437.025 FM, 437.400 FM
Saudisat 1A 18 Apr 17:29:21 17:31:18 13° 22° (NNE) 17:33:15 436.775 MHz
OPAL 18 Apr 17:38:28 17:41:22 15° 307° (NW) 17:44:15 ?
JAS-2 18 Apr 17:52:38 17:57:26 29° 64° (ENE) 18:01:57 435.800 - 435.900 CW/SSB, 435.910 FM
AO-7 18 Apr 17:53:55 18:00:25 25° 269° (W) 18:06:58 29.400 - 29.500 MHz
RS-15 18 Apr 17:57:15 18:06:11 31° 255° (WSW) 18:15:20 29.354 - 29.394 USB, Beacon 29.352 USB
SO-50 18 Apr 18:08:09 18:11:33 21° 328° (NNW) 18:14:59 436.795 FM
ISS 18 Apr 18:15:27 18:18:41 43° 350° (N) 18:21:55 145.800 FM
STRAND 1 18 Apr 18:34:54 18:38:54 23° 92° (E) 18:42:52 ?
Hamsat 18 Apr 18:43:51 18:47:45 37° 263° (W) 18:51:44 145.90 MHz
UOSAT-12 18 Apr 18:54:45 18:59:18 63° 311° (NW) 19:03:58 437.025 FM, 437.400 FM
Saudisat 1A 18 Apr 19:07:52 19:12:05 41° 44° (NE) 19:16:15 436.775 MHz
SO-67 18 Apr 19:13:45 19:17:14 82° 257° (WSW) 19:20:46 435.3500 MHz FM
JAS-2 18 Apr 19:36:52 19:42:26 45° 261° (W) 19:47:34 435.800 - 435.900 CW/SSB, 435.910 FM
HO-68 18 Apr 19:37:14 19:43:21 32° 57° (ENE) 19:49:30 435.675 MHz FM
ISS 18 Apr 19:52:38 19:55:52 42° 10° (N) 19:59:05 145.800 FM
STRAND 1 18 Apr 20:13:27 20:18:24 52° 291° (WNW) 20:23:19 ?
Oscar 11 18 Apr 20:17:51 20:20:20 15° 60° (ENE) 20:22:50 145.825 FM, Beacon 2401.500 USB
UOSAT-12 18 Apr 20:37:22 20:40:23 17° 333° (NNW) 20:43:27 437.025 FM, 437.400 FM
Saudisat 1A 18 Apr 20:47:44 20:51:34 29° 243° (WSW) 20:55:22 436.775 MHz
HO-68 18 Apr 21:23:37 21:30:40 62° 257° (WSW) 21:37:47 435.675 MHz FM
ISS 18 Apr 21:29:25 21:32:46 67° 209° (SSW) 21:36:06 145.800 FM
SO-50 18 Apr 21:35:05 21:36:40 12° 18° (NNE) 21:38:15 436.795 FM
FUNcube-1 18 Apr 21:39:55 21:43:37 31° 68° (ENE) 21:47:18 145.950 - 145.970 MHz USB
Oscar 11 18 Apr 21:51:45 21:56:02 68° 258° (WSW) 22:00:21 145.825 FM, Beacon 2401.500 USB
MaSat-1 18 Apr 22:11:55 22:14:45 87° 299° (WNW) 22:17:19 437.345 MHz
ISS 18 Apr 23:07:32 23:08:59 12° 226° (SW) 23:10:25 145.800 FM
SO-50 18 Apr 23:14:27 23:18:38 33° 41° (NE) 23:22:52 436.795 FM
FUNcube-1 18 Apr 23:16:29 23:20:04 27° 265° (W) 23:23:39 145.950 - 145.970 MHz USB
HO-68 18 Apr 23:17:52 23:19:50 11° 277° (W) 23:21:49 435.675 MHz FM
PCSat 18 Apr 23:58:24 00:02:24 21° 107° (ESE) 00:06:24 145.825 MHz
UOSAT-12 19 Apr 00:02:13 00:04:47 14° 23° (NNE) 00:07:21 437.025 FM, 437.400 FM
SO-50 19 Apr 00:54:56 00:59:21 44° 240° (WSW) 01:03:48 436.795 FM
Sapphire 19 Apr 00:55:03 01:00:19 55° 117° (ESE) 01:05:37 437.095 MHz 1200 baud AX-25 AFSK
Oscar 19 19 Apr 01:15:30 01:18:49 17° 89° (E) 01:22:07 437.125 CW, 437.150 USB
Oscar 16 19 Apr 01:23:14 01:27:08 21° 91° (E) 01:31:00 437.025 USB, Beacon 2401.1428
OPAL 19 Apr 01:38:00 01:42:38 38° 63° (ENE) 01:47:20 ?
PCSat 19 Apr 01:39:55 01:45:18 68° 306° (NW) 01:50:44 145.825 MHz
UOSAT-12 19 Apr 01:41:33 01:46:07 46° 45° (NE) 01:50:39 437.025 FM, 437.400 FM
Uribyol 2 19 Apr 01:57:09 02:01:09 22° 92° (E) 02:05:09 436.500 FM
KITSAT 1 19 Apr 02:11:23 02:18:08 30° 107° (ESE) 02:24:54 435.175 FM
Gurwin Techsat 1B 19 Apr 02:26:52 02:29:23 13° 87° (E) 02:31:53 435.225 FM
Oscar 10/S400 19 Apr 02:34:43 02:53:46 26° 129° (SE) 03:56:55 145.825 - 145.975 CW/USB, Beacon 145.810 USB
AO-27 19 Apr 02:36:24 02:41:24 46° 99° (E) 02:46:21 436.795 MHz FM
Sapphire 19 Apr 02:39:16 02:44:03 31° 318° (NW) 02:48:52 437.095 MHz 1200 baud AX-25 AFSK
ITAMSAT 1 19 Apr 02:47:13 02:52:20 56° 101° (E) 02:57:24 435.822 SSB
Oscar 19 19 Apr 02:53:31 02:58:43 73° 287° (WNW) 03:03:54 437.125 CW, 437.150 USB
AO-Echo 19 Apr 03:00:45 03:05:33 61° 101° (E) 03:10:12 ?
Oscar 16 19 Apr 03:01:45 03:06:52 59° 289° (WNW) 03:11:58 437.025 USB, Beacon 2401.1428
TMSAT-1 19 Apr 03:14:06 03:18:27 25° 93° (E) 03:22:47 436.925 FM
OPAL 19 Apr 03:17:04 03:21:34 32° 262° (W) 03:26:09 ?
UOSAT-12 19 Apr 03:22:02 03:26:07 30° 244° (WSW) 03:30:10 437.025 FM, 437.400 FM
PCSat 19 Apr 03:26:05 03:29:46 18° 329° (NNW) 03:33:28 145.825 MHz
Uribyol 2 19 Apr 03:35:55 03:40:58 55° 290° (WNW) 03:46:00 436.500 FM
AO-7 19 Apr 03:57:32 04:03:33 21° 89° (E) 04:09:32 29.400 - 29.500 MHz
Gurwin Techsat 1B 19 Apr 04:04:45 04:10:07 90° 104° (ESE) 04:15:25 435.225 FM
KITSAT 1 19 Apr 04:04:46 04:12:53 74° 308° (NW) 04:21:03 435.175 FM
AO-27 19 Apr 04:16:22 04:20:42 28° 298° (WNW) 04:25:01 436.795 MHz FM
ITAMSAT 1 19 Apr 04:27:27 04:31:28 23° 299° (WNW) 04:35:29 435.822 SSB
Sapphire 19 Apr 04:27:36 04:29:19 11° 342° (NNW) 04:31:02 437.095 MHz 1200 baud AX-25 AFSK
JAS-1B 19 Apr 04:32:29 04:38:04 54° 101° (E) 04:43:45 435.800 - 435.900 CW/SSB
Oscar 19 19 Apr 04:34:59 04:37:11 13° 306° (NW) 04:39:23 437.125 CW, 437.150 USB
AO-Echo 19 Apr 04:40:31 04:43:53 19° 300° (WNW) 04:47:12 ?
Oscar 16 19 Apr 04:44:24 04:45:11 10° 309° (NW) 04:45:57 437.025 USB, Beacon 2401.1428
TMSAT-1 19 Apr 04:53:32 04:58:38 50° 291° (WNW) 05:03:43 436.925 FM
Uosat F 19 Apr 04:57:06 05:02:08 75° 104° (ESE) 05:07:07 435.120 FM
Gurwin Techsat 1B 19 Apr 05:46:13 05:49:22 16° 304° (NW) 05:52:30 435.225 FM
STRAND 1 19 Apr 05:53:42 05:58:33 45° 68° (ENE) 06:03:25 ?
